Wind_Speed
49 50 52 52 53 52 56 57 56 56 57 58 59 55 49 45 41 40 40 34 32 29 26 21 17 15 13 11 11 8 10 11 12 12 13 15 17 21 26 30 35 36 35 37
52 52 55 57 58 58 58 59 60 60 61 62 61 60 58 55 49 45 45 41 36 34 32 29 22 18 16 13 12 12 15 14 15 18 19 20 19 19 22 25 27 31 35 33
61 60 60 57 56 55 57 61 58 59 63 64 65 64 64 62 58 53 49 47 44 40 37 35 30 24 21 20 17 15 18 19 17 17 18 19 20 19 22 24 27 26 28 26
57 61 64 65 66 66 64 62 59 58 56 60 63 63 65 65 63 59 55 55 49 45 46 41 36 34 28 27 25 24 22 18 18 20 23 24 25 24 27 29 25 29 23 28
58 61 63 62 63 67 69 67 67 65 63 60 59 62 63 64 66 69 63 60 54 55 53 45 44 42 37 35 33 31 29 25 23 22 26 25 28 29 29 30 32 32 30 27
63 64 62 62 62 62 63 64 69 72 67 65 65 63 63 64 65 66 69 67 63 60 56 53 53 50 45 43 40 39 37 33 31 30 29 31 34 26 28 28 27 28 29 24
65 65 63 61 60 61 61 61 61 62 71 71 68 66 63 65 65 66 66 70 67 62 60 60 59 57 54 52 47 46 44 40 40 39 38 42 30 28 26 27 29 30 29 29
67 67 68 67 65 63 62 63 62 61 61 60 61 69 66 63 61 65 67 65 71 67 63 63 59 59 61 58 53 52 50 48 45 47 46 45 43 35 34 36 34 35 36 35
73 75 77 77 76 75 71 67 66 65 63 59 58 55 56 64 64 56 55 63 59 67 72 66 69 67 62 61 60 57 55 52 52 53 53 54 46 44 43 42 43 38 39 39
78 78 76 75 74 75 76 73 70 67 65 61 61 61 57 53 58 65 59 53 52 58 64 72 74 73 71 67 65 63 62 60 60 57 58 60 56 51 48 49 47 43 44 46
57 58 59 60 60 57 59 61 65 68 69 62 61 60 58 56 54 52 54 60 56 48 48 59 64 69 73 74 70 66 64 63 64 62 63 66 59 58 56 53 52 52 50 49
47 46 45 43 41 43 47 50 52 57 63 63 63 61 58 58 55 54 50 49 49 52 50 50 48 56 64 68 76 74 71 68 63 63 65 65 63 62 61 59 58 58 57 55
35 33 31 30 30 30 32 36 40 46 50 52 55 59 60 58 58 56 53 50 49 48 48 39 42 50 49 54 64 66 73 73 69 68 70 68 69 68 66 64 63 63 65 66
26 25 25 25 23 24 24 24 30 35 37 39 36 45 50 55 58 60 58 54 51 51 51 47 46 46 41 44 45 48 55 62 69 72 72 71 70 69 69 69 70 69 68 68
26 26 24 24 23 21 20 22 25 28 28 27 19 26 32 42 48 53 57 55 54 54 55 57 54 42 46 46 47 38 44 46 49 51 54 56 57 60 62 63 64 65 65 65
24 23 23 22 22 20 21 22 21 20 24 23 18 17 22 26 28 34 40 46 50 53 55 57 57 57 44 42 46 41 46 44 43 41 42 45 52 39 41 56 58 57 57 56
23 23 23 22 22 21 21 18 15 18 18 17 12 10 13 15 15 17 17 19 28 41 48 54 57 59 60 56 51 48 43 42 49 44 48 47 44 52 44 42 41 42 42 43
24 24 23 23 22 21 20 18 14 12 11 10 8 7 7 8 9 8 6 10 13 19 29 37 48 52 58 58 58 56 53 49 48 47 46 46 48 40 36 35 32 33 37 38
23 24 23 23 22 18 14 11 9 8 9 9 11 10 9 7 5 3 8 10 17 18 23 22 25 37 41 43 48 52 46 47 55 54 48 44 43 42 44 44 44 40 44 45
21 26 26 23 17 12 8 8 7 6 7 8 10 10 12 8 7 9 11 2 7 13 17 25 26 25 30 38 40 38 35 35 37 38 38 38 39 39 40 42 42 42 44 46
26 30 21 12 7 4 3 2 3 3 6 6 7 8 8 5 9 13 7 2 4 10 11 18 27 26 26 27 30 35 39 37 36 35 36 37 37 37 39 41 42 44 45 46
24 17 10 4 3 2 2 0 2 4 7 8 4 5 4 1 7 12 12 6 5 8 10 11 18 24 28 28 29 30 31 33 34 36 36 36 36 37 38 40 41 44 45 47
14 12 5 4 4 4 3 3 3 3 3 4 4 4 2 1 6 9 9 9 6 5 10 12 16 20 23 26 26 26 26 27 28 29 31 32 34 35 37 38 39 40 41 42
9 7 6 5 6 5 4 4 3 4 3 3 4 5 4 3 6 8 9 8 9 10 9 11 13 15 16 17 19 19 20 20 21 22 24 25 27 29 30 32 34 36 38 41
10 8 8 7 6 7 7 7 6 5 4 4 5 6 5 4 5 10 10 9 9 10 11 12 13 14 16 17 18 20 21 23 25 27 29 31 33 35 37 39 41 43 45 45
16 14 12 11 9 8 8 8 7 6 4 2 3 3 3 2 1 4 10 12 12 10 9 10 12 13 15 17 19 22 24 26 28 30 32 34 35 36 37 37 36 36 36 36
20 18 16 13 12 11 11 10 11 9 9 8 7 5 4 4 2 1 2 3 6 8 10 12 13 15 16 18 20 22 23 24 25 26 26 27 27 28 28 28 27 26 25 24
Wind_Direction
268 271 267 264 262 263 262 258 257 256 256 258 262 265 264 261 258 262 268 270 275 279 284 289 299 309 316 305 290 278 256 236 228 232 226 223 228 227 229 230 225 226 225 228
276 273 270 271 265 263 264 264 263 260 257 255 257 259 260 260 259 258 261 264 265 267 272 275 278 282 288 290 283 268 262 259 244 226 232 239 235 233 235 235 234 233 234 230
273 273 270 268 268 268 268 265 264 263 261 261 257 253 255 257 257 255 255 258 258 259 262 263 263 268 267 273 269 264 260 258 250 249 241 235 239 239 238 238 239 241 244 246
286 278 271 267 267 267 266 265 263 262 261 260 260 260 261 255 255 254 252 251 251 251 252 252 259 258 256 257 260 257 259 262 257 245 241 241 234 238 238 240 237 240 237 240
292 286 280 276 273 267 263 261 259 260 259 259 257 257 257 258 254 252 248 251 248 248 250 252 250 252 252 250 251 254 255 252 249 243 250 243 240 236 236 241 244 242 246 242
296 289 283 278 275 273 272 267 262 257 254 255 255 257 256 254 255 254 253 246 246 248 248 246 247 247 245 247 247 249 250 252 250 246 244 246 245 246 244 244 242 246 248 243
292 288 285 282 277 273 271 269 268 266 258 257 252 252 250 252 249 251 250 250 248 243 245 245 245 246 245 243 244 244 246 247 250 252 248 246 250 246 246 246 241 241 241 242
287 284 281 280 277 274 271 269 267 265 264 265 264 261 250 251 249 250 248 247 248 243 240 242 242 244 246 245 244 245 245 245 249 253 254 256 249 248 248 248 245 247 253 253
284 282 281 279 276 274 271 269 267 267 266 263 264 264 267 265 253 252 251 248 248 252 242 240 240 240 244 246 247 245 244 245 250 253 254 257 257 254 256 255 248 251 258 259
285 283 280 277 275 272 270 267 264 263 264 263 264 264 262 263 267 261 252 255 253 248 246 247 240 240 240 241 245 245 246 248 251 253 256 256 258 258 256 257 262 261 260 261
288 286 283 279 275 273 271 268 263 260 258 258 261 260 261 260 260 262 265 260 250 250 253 250 246 249 246 242 239 243 247 248 249 251 252 254 260 263 261 260 261 263 264 266
292 292 291 287 280 273 270 269 266 263 258 253 253 256 257 258 257 256 254 258 260 258 258 251 253 251 246 247 245 242 243 246 251 250 251 252 257 260 261 263 263 263 264 266
297 299 300 296 289 278 270 267 267 265 265 258 253 253 253 254 254 254 252 250 249 249 254 251 257 253 249 249 248 251 248 247 248 250 250 250 251 253 255 258 261 262 263 263
305 304 306 304 301 292 283 272 267 271 271 267 257 255 254 254 255 254 251 249 246 243 237 233 239 247 250 257 254 250 250 254 255 255 256 257 258 258 258 259 261 263 265 268
301 304 306 307 303 302 294 283 270 270 273 277 265 257 253 251 252 252 251 248 246 242 238 237 229 234 242 246 248 248 256 252 253 259 261 262 263 263 262 261 262 264 266 268
297 305 310 308 301 302 296 290 284 279 276 280 280 264 259 260 259 255 249 246 243 239 236 234 233 228 229 231 236 246 249 246 249 257 263 262 262 256 249 263 268 268 271 271
299 307 310 308 303 298 296 292 277 268 274 281 284 270 261 263 266 263 257 251 249 241 236 232 230 228 227 235 235 234 234 242 254 253 253 246 230 257 264 264 261 260 257 252
298 309 314 311 306 297 286 281 281 270 271 279 282 272 272 270 268 272 243 212 222 249 241 241 232 228 229 237 239 242 243 247 252 251 250 248 252 254 253 249 246 249 250 253
306 311 316 311 305 301 282 278 274 266 268 263 266 276 283 270 264 205 178 211 235 224 229 240 245 236 230 235 242 245 248 248 245 246 247 247 244 246 250 246 250 259 252 261
312 316 318 314 306 295 280 265 261 261 272 272 273 284 280 249 222 185 165 268 235 231 225 219 217 221 228 235 237 232 240 247 248 247 248 249 250 252 252 251 253 255 254 254
316 318 320 319 317 308 265 260 247 280 283 286 291 290 287 238 208 197 189 196 223 217 225 216 219 219 219 229 234 235 235 236 236 238 241 244 245 245 245 246 248 249 249 250
323 331 334 346 15 30 35 294 266 276 267 278 285 302 327 268 191 196 212 223 207 209 213 216 219 228 228 230 232 233 235 234 233 235 235 236 236 238 241 244 247 250 255 259
335 344 4 26 58 46 37 26 0 334 310 284 266 282 301 108 175 181 201 204 204 208 210 209 217 221 223 224 226 231 235 234 236 239 241 243 245 248 251 255 258 263 266 269
0 16 37 65 59 45 33 16 349 335 329 320 281 256 254 235 192 206 213 210 213 218 210 217 221 225 226 226 229 231 234 238 241 244 247 250 252 256 260 266 273 277 282 284
39 42 40 37 27 13 1 351 343 337 328 310 298 296 299 270 217 203 210 209 206 205 211 217 222 227 229 233 236 240 243 246 249 253 257 261 265 269 273 276 278 280 280 280
49 51 48 43 40 34 28 24 19 15 10 355 341 332 324 325 250 211 216 222 220 222 221 229 236 239 243 246 248 251 254 256 259 261 263 265 267 269 270 271 272 273 274 275
51 53 52 52 50 48 49 50 46 42 45 49 48 46 58 62 59 62 203 227 235 240 246 252 257 261 262 263 263 264 264 264 265 266 268 270 272 273 273 274 275 275 274 273
Height
5664 5662 5662 5661 5661 5660 5660 5659 5660 5661 5662 5661 5659 5663 5668 5669 5669 5668 5666 5668 5668 5668 5667 5666 5665 5664 5661 5659 5658 5657 5654 5653 5652 5655 5656 5657 5660 5664 5667 5669 5673 5676 5679 5686
5650 5649 5647 5645 5645 5646 5644 5643 5644 5644 5643 5644 5647 5648 5649 5651 5656 5658 5656 5657 5659 5659 5660 5659 5660 5659 5658 5657 5655 5654 5653 5652 5651 5651 5653 5655 5656 5660 5662 5664 5668 5671 5676 5682
5633 5632 5631 5629 5628 5627 5627 5627 5626 5626 5627 5628 5628 5630 5632 5635 5639 5642 5644 5645 5647 5649 5650 5649 5651 5653 5652 5652 5651 5650 5647 5647 5648 5650 5650 5652 5653 5656 5657 5659 5662 5667 5671 5676
5616 5613 5611 5609 5607 5607 5607 5608 5608 5607 5610 5610 5610 5612 5614 5618 5620 5625 5627 5628 5633 5635 5633 5637 5641 5642 5644 5644 5644 5644 5642 5643 5643 5644 5645 5646 5647 5650 5651 5652 5658 5659 5667 5667
5597 5594 5591 5589 5586 5583 5584 5585 5586 5587 5592 5591 5590 5591 5595 5596 5602 5600 5607 5611 5619 5615 5619 5627 5627 5629 5633 5634 5634 5634 5635 5636 5636 5638 5639 5640 5641 5642 5644 5648 5650 5652 5656 5661
5578 5574 5571 5568 5566 5564 5560 5560 5561 5561 5572 5570 5570 5574 5574 5577 5579 5585 5585 5591 5597 5602 5607 5608 5610 5613 5619 5620 5622 5624 5625 5627 5628 5629 5630 5631 5631 5639 5640 5642 5644 5648 5650 5655
5557 5552 5549 5548 5546 5544 5543 5541 5539 5538 5546 5546 5548 5549 5551 5553 5556 5559 5568 5568 5574 5584 5586 5589 5593 5595 5600 5605 5609 5611 5614 5617 5617 5618 5619 5616 5628 5630 5633 5635 5636 5638 5641 5645
5534 5531 5528 5525 5524 5523 5522 5521 5520 5519 5522 5525 5527 5526 5530 5533 5536 5540 5542 5551 5553 5559 5566 5570 5576 5579 5582 5587 5596 5598 5602 5604 5605 5605 5609 5611 5613 5621 5623 5624 5629 5629 5630 5635
5510 5505 5502 5500 5498 5498 5498 5499 5498 5499 5503 5509 5506 5510 5510 5512 5515 5522 5525 5531 5535 5538 5541 5547 5551 5559 5568 5572 5576 5584 5587 5590 5592 5593 5593 5595 5606 5608 5610 5611 5613 5621 5620 5622
5481 5476 5472 5469 5468 5469 5467 5472 5474 5476 5480 5488 5487 5490 5494 5496 5496 5501 5512 5513 5518 5520 5522 5526 5532 5539 5548 5552 5557 5566 5570 5573 5575 5579 5578 5580 5585 5591 5597 5598 5605 5606 5606 5606
5455 5451 5448 5445 5445 5445 5442 5445 5447 5451 5455 5467 5467 5470 5474 5478 5481 5484 5492 5494 5501 5505 5505 5508 5516 5520 5530 5532 5539 5544 5550 5555 5559 5562 5563 5563 5572 5576 5581 5586 5586 5587 5591 5592
5438 5434 5429 5425 5425 5426 5424 5425 5425 5426 5430 5442 5445 5450 5454 5457 5460 5467 5474 5478 5482 5488 5490 5496 5497 5501 5509 5514 5518 5525 5529 5533 5539 5545 5548 5552 5554 5558 5560 5565 5569 5573 5575 5575
5425 5422 5418 5414 5413 5412 5412 5410 5410 5408 5411 5419 5426 5428 5432 5437 5441 5446 5455 5461 5465 5470 5474 5479 5482 5485 5492 5494 5500 5507 5509 5514 5516 5522 5527 5534 5537 5541 5544 5546 5549 5552 5554 5556
5417 5414 5410 5407 5405 5403 5401 5401 5399 5397 5398 5401 5411 5410 5414 5416 5420 5424 5433 5442 5448 5454 5459 5463 5469 5473 5478 5481 5485 5489 5493 5497 5500 5505 5511 5517 5521 5524 5527 5529 5531 5532 5535 5537
5409 5406 5403 5400 5397 5395 5393 5392 5390 5390 5390 5391 5397 5397 5397 5398 5401 5405 5411 5420 5428 5434 5440 5445 5453 5458 5465 5468 5471 5475 5476 5481 5486 5489 5494 5498 5502 5504 5507 5511 5513 5515 5517 5518
5402 5399 5397 5394 5391 5390 5387 5386 5384 5384 5383 5384 5387 5389 5387 5388 5389 5391 5394 5400 5408 5414 5419 5427 5435 5442 5451 5452 5455 5458 5464 5469 5472 5478 5480 5484 5487 5490 5492 5494 5496 5497 5498 5500
5395 5394 5391 5388 5385 5383 5381 5380 5379 5377 5378 5379 5381 5381 5382 5381 5382 5383 5386 5390 5392 5396 5402 5408 5416 5424 5433 5435 5441 5446 5451 5457 5462 5465 5469 5472 5473 5476 5477 5479 5480 5481 5483 5485
5390 5388 5385 5382 5378 5376 5374 5372 5372 5373 5374 5375 5376 5376 5377 5377 5378 5379 5381 5384 5386 5388 5390 5394 5401 5410 5417 5421 5426 5432 5438 5443 5447 5451 5455 5459 5461 5463 5464 5466 5467 5470 5472 5474
5384 5382 5379 5375 5372 5370 5368 5368 5368 5369 5372 5371 5372 5372 5374 5374 5375 5376 5378 5380 5380 5382 5384 5389 5394 5399 5405 5410 5415 5421 5425 5429 5434 5438 5442 5445 5447 5449 5452 5454 5455 5458 5461 5462
5379 5376 5373 5368 5365 5364 5365 5365 5366 5367 5367 5368 5368 5369 5368 5371 5371 5374 5376 5375 5375 5377 5380 5384 5387 5391 5395 5401 5406 5410 5414 5418 5422 5426 5429 5432 5434 5437 5439 5441 5443 5446 5448 5450
5375 5370 5366 5363 5362 5362 5362 5363 5364 5365 5364 5365 5365 5365 5365 5367 5368 5370 5372 5373 5373 5375 5377 5380 5383 5387 5390 5394 5397 5401 5405 5408 5412 5415 5418 5421 5424 5426 5428 5430 5432 5434 5436 5438
5370 5366 5363 5362 5361 5361 5362 5362 5363 5363 5364 5363 5363 5363 5364 5364 5365 5368 5370 5371 5372 5373 5376 5377 5379 5382 5385 5388 5391 5394 5398 5401 5404 5406 5409 5411 5414 5417 5419 5421 5422 5424 5425 5426
5368 5365 5363 5362 5362 5362 5362 5362 5362 5362 5362 5362 5362 5363 5363 5364 5365 5366 5368 5370 5371 5373 5373 5375 5377 5378 5380 5383 5386 5389 5392 5395 5398 5400 5403 5405 5407 5409 5410 5412 5413 5413 5414 5414
5366 5365 5363 5363 5363 5363 5362 5362 5362 5362 5362 5361 5361 5362 5362 5363 5364 5365 5367 5368 5370 5371 5372 5373 5375 5376 5378 5380 5382 5385 5387 5389 5391 5393 5395 5397 5398 5400 5401 5401 5402 5401 5401 5400
5368 5367 5365 5364 5364 5364 5363 5363 5362 5362 5362 5362 5362 5362 5362 5362 5363 5364 5366 5367 5368 5369 5370 5371 5372 5374 5375 5377 5378 5380 5382 5383 5385 5386 5387 5388 5389 5389 5390 5390 5390 5389 5387 5386
5371 5369 5368 5367 5366 5366 5365 5364 5363 5362 5361 5361 5361 5361 5361 5361 5362 5362 5363 5365 5366 5368 5369 5369 5370 5371 5372 5373 5374 5374 5375 5375 5376 5377 5377 5377 5377 5377 5377 5377 5376 5375 5374 5373
5376 5374 5372 5371 5369 5368 5367 5366 5365 5364 5363 5362 5362 5361 5361 5361 5361 5362 5362 5363 5364 5365 5366 5366 5366 5367 5367 5367 5367 5367 5367 5367 5367 5367 5367 5367 5367 5366 5366 5365 5365 5364 5364 5362